Location: Bushrod
(6.3500°N, 10.7833°W)
Time: 05:08:08
(UTC+00:00)

Cosmos 2056 Rocket - Pass Details

Date: 17 September 2019
Orbit: 742 x 800 km, 74.0° (Epoch: 14 October)

Event Time Altitude Azimuth Distance (km) Brightness Sun altitude
Rises 20:11:40 0° 198° (SSW) 3,272 6.9 -23.1°
Reaches altitude 10° 20:14:04 10° 201° (SSW) 2,350 6.2 -23.7°
Maximum altitude 20:19:22 66° 283° (WNW) 864 3.9 -25.0°
Drops below altitude 10° 20:24:43 10° 5° (N) 2,364 6.0 -26.3°
Sets 20:27:09 0° 8° (N) 3,294 6.8 -26.9°
